Terminal Aerodrome Forecast
Issued by NWS Charleston, WV

Current Version | Previous Version | Graphics & Text | Print | Product List | Glossary On
Versions: 1 2 3 4 5 6 7 8 9 10 11 12 13 14 15 16 17 18 19 20 21 22 23 24 25 26 27 28 29 30 31 32
000
FTUS41 KRLX 121000 AAB
TAFBKW
TAF AMD
KBKW 121020Z 1210/1306 VRB03KT 1/2SM -DZ FG VV002
     FM121500 VRB03KT 3SM BR OVC005
     FM121800 35004KT P6SM OVC010
     FM130200 08004KT P6SM BKN010
     FM130500 13005KT 6SM SHRA BR BKN010=

USA.gov is the U.S. government's official web portal to all federal, state and local government web resources and services.